SBI4119 UHWW-UHHH

Flight info

Callsign SBI4119
Flight time 1h 2m
Altitude 34000
Route UHWW DOLMA B356 TD B355 ARDEL UHHH
Aircraft B738/M-SDE3GHIRWXZ/2300

Departure

Time 2026-05-05 16:42
Airport Vladivostok International Airport (UHWW)

Arrival

Time 2026-05-05 17:45
Airport Khabarovsk Novy Airport (UHHH)
Time Latitude Longitude Altitude Speed Heading
2026-05-05 16:23 43.39825 132.16728 49 ft 0 kts 151°
2026-05-05 16:33 43.39832 132.16724 48 ft 2 kts 151°
2026-05-05 16:34 43.39845 132.16713 48 ft 2 kts 151°
2026-05-05 16:34 43.39858 132.16704 48 ft 2 kts 151°
2026-05-05 16:34 43.39871 132.16695 47 ft 1 kts 151°
2026-05-05 16:34 43.39880 132.16687 47 ft 2 kts 136°
2026-05-05 16:35 43.39887 132.16670 47 ft 2 kts 102°
2026-05-05 16:35 43.39887 132.16649 47 ft 2 kts 69°
2026-05-05 16:35 43.39884 132.16641 48 ft 1 kts 55°
2026-05-05 16:35 43.39881 132.16637 48 ft 0 kts 59°
2026-05-05 16:38 43.39882 132.16637 48 ft 1 kts 59°
2026-05-05 16:38 43.39891 132.16656 47 ft 3 kts 46°
2026-05-05 16:38 43.39919 132.16685 46 ft 7 kts 39°
2026-05-05 16:38 43.39955 132.16754 45 ft 9 kts 59°
2026-05-05 16:39 43.39991 132.16840 43 ft 12 kts 61°
2026-05-05 16:39 43.40039 132.16957 40 ft 14 kts 60°
2026-05-05 16:39 43.40084 132.17062 39 ft 10 kts 60°
2026-05-05 16:39 43.40123 132.17072 38 ft 7 kts 337°
2026-05-05 16:40 43.40177 132.17032 38 ft 10 kts 331°
2026-05-05 16:40 43.40250 132.16978 37 ft 12 kts 332°
2026-05-05 16:40 43.40309 132.16936 36 ft 9 kts 331°
2026-05-05 16:40 43.40378 132.16882 35 ft 13 kts 330°
2026-05-05 16:41 43.40431 132.16832 35 ft 7 kts 296°
2026-05-05 16:41 43.40418 132.16760 35 ft 0 kts 239°
2026-05-05 16:41 43.40416 132.16757 35 ft 4 kts 239°
2026-05-05 16:42 43.40329 132.16539 37 ft 63 kts 240°
2026-05-05 16:42 43.39986 132.15689 55 ft 138 kts 240°
2026-05-05 16:42 43.39441 132.14310 262 ft 180 kts 241°
2026-05-05 16:42 43.38867 132.12784 1122 ft 185 kts 245°
2026-05-05 16:43 43.38280 132.11247 1979 ft 187 kts 240°
2026-05-05 16:43 43.37598 132.09674 2577 ft 198 kts 241°
2026-05-05 16:43 43.36897 132.08008 3216 ft 207 kts 244°
2026-05-05 16:43 43.36186 132.06255 3840 ft 216 kts 245°
2026-05-05 16:44 43.35458 132.04443 4563 ft 220 kts 244°
2026-05-05 16:44 43.34728 132.02634 5344 ft 221 kts 245°
2026-05-05 16:44 43.34257 132.00635 5996 ft 224 kts 266°
2026-05-05 16:44 43.34474 131.98523 6667 ft 233 kts 287°
2026-05-05 16:45 43.35206 131.96518 7501 ft 239 kts 300°
2026-05-05 16:45 43.36367 131.94814 8125 ft 259 kts 320°
2026-05-05 16:45 43.38106 131.93918 8715 ft 286 kts 348°
2026-05-05 16:45 43.40131 131.94173 9535 ft 302 kts
2026-05-05 16:46 43.42082 131.95497 10177 ft 323 kts 33°
2026-05-05 16:46 43.43731 131.97763 10600 ft 346 kts 47°
2026-05-05 16:46 43.45242 132.00505 11004 ft 364 kts 51°
2026-05-05 16:46 43.46768 132.03424 11431 ft 381 kts 51°
2026-05-05 16:47 43.48371 132.06422 11813 ft 397 kts 50°
2026-05-05 16:47 43.50068 132.09495 12168 ft 413 kts 49°
2026-05-05 16:47 43.51877 132.12692 12691 ft 423 kts 49°
2026-05-05 16:47 43.53686 132.15848 13411 ft 427 kts 48°
2026-05-05 16:48 43.55538 132.19064 14057 ft 433 kts 48°
2026-05-05 16:48 43.57427 132.22340 14760 ft 438 kts 48°
2026-05-05 16:48 43.59336 132.25656 15434 ft 443 kts 48°
2026-05-05 16:48 43.61227 132.28944 16197 ft 444 kts 48°
2026-05-05 16:49 43.63165 132.32321 16818 ft 450 kts 49°
2026-05-05 16:49 43.65100 132.35700 17453 ft 454 kts 49°
2026-05-05 16:49 43.67066 132.39137 18096 ft 458 kts 49°
2026-05-05 16:49 43.69028 132.42575 18750 ft 461 kts 49°
2026-05-05 16:50 43.71025 132.46074 19402 ft 464 kts 48°
2026-05-05 16:50 43.73022 132.49568 20046 ft 466 kts 48°
2026-05-05 16:50 43.75029 132.53084 20618 ft 471 kts 48°
2026-05-05 16:50 43.77070 132.56662 21269 ft 472 kts 48°
2026-05-05 16:51 43.79089 132.60200 21828 ft 476 kts 48°
2026-05-05 16:51 43.81242 132.63672 22424 ft 476 kts 43°
2026-05-05 16:51 43.83555 132.66907 22996 ft 477 kts 40°
2026-05-05 16:51 43.86021 132.70073 23493 ft 480 kts 38°
2026-05-05 16:52 43.88514 132.73140 24026 ft 483 kts 37°
2026-05-05 16:52 43.91044 132.76199 24579 ft 485 kts 37°
2026-05-05 16:52 43.93629 132.79318 25096 ft 488 kts 37°
2026-05-05 16:52 43.96156 132.82381 25603 ft 491 kts 37°
2026-05-05 16:53 43.98734 132.85524 26083 ft 494 kts 37°
2026-05-05 16:53 44.01327 132.88704 26505 ft 499 kts 37°
2026-05-05 16:53 44.03912 132.91893 26971 ft 502 kts 37°
2026-05-05 16:53 44.06515 132.95114 27386 ft 505 kts 37°
2026-05-05 16:54 44.09141 132.98378 27894 ft 507 kts 37°
2026-05-05 16:54 44.11766 133.01645 28324 ft 509 kts 37°
2026-05-05 16:54 44.14399 133.04930 29064 ft 505 kts 37°
2026-05-05 16:54 44.17017 133.08208 29771 ft 501 kts 37°
2026-05-05 16:55 44.19605 133.11435 30254 ft 501 kts 36°
2026-05-05 16:55 44.22310 133.14584 30739 ft 499 kts 33°
2026-05-05 16:55 44.25130 133.17612 31341 ft 494 kts 31°
2026-05-05 16:55 44.27874 133.20427 31784 ft 494 kts 30°
2026-05-05 16:56 44.30675 133.23244 32335 ft 491 kts 29°
2026-05-05 16:56 44.33434 133.26012 32834 ft 490 kts 29°
2026-05-05 16:56 44.36149 133.28751 33301 ft 488 kts 29°
2026-05-05 16:56 44.38904 133.31547 33727 ft 488 kts 29°
2026-05-05 16:57 44.44451 133.37227 33768 ft 493 kts 29°
2026-05-05 16:57 44.49984 133.42960 33776 ft 487 kts 29°
2026-05-05 16:58 44.55436 133.48631 33772 ft 490 kts 29°
2026-05-05 16:58 44.60945 133.54381 33775 ft 490 kts 29°
2026-05-05 16:59 44.66391 133.60089 33770 ft 490 kts 29°
2026-05-05 16:59 44.71875 133.65840 33761 ft 491 kts 30°
2026-05-05 17:00 44.77341 133.71585 33764 ft 493 kts 30°
2026-05-05 17:00 44.82777 133.77319 33854 ft 494 kts 30°
2026-05-05 17:01 44.85533 133.80234 34431 ft 489 kts 29°
2026-05-05 17:01 44.88253 133.83113 34723 ft 489 kts 29°
2026-05-05 17:01 44.93715 133.88864 34744 ft 491 kts 28°
2026-05-05 17:02 44.99240 133.94434 34747 ft 486 kts 27°
2026-05-05 17:02 45.04803 133.99922 34731 ft 486 kts 27°
2026-05-05 17:03 45.10392 134.05461 34743 ft 488 kts 27°
2026-05-05 17:03 45.15946 134.10997 34747 ft 489 kts 27°
2026-05-05 17:04 45.21489 134.16550 34739 ft 488 kts 27°
2026-05-05 17:04 45.27054 134.22142 34750 ft 487 kts 27°
2026-05-05 17:05 45.32612 134.27737 34744 ft 490 kts 27°
2026-05-05 17:05 45.38235 134.33424 34748 ft 490 kts 27°
2026-05-05 17:06 45.43876 134.39148 34745 ft 492 kts 27°
2026-05-05 17:06 45.49480 134.44858 34734 ft 491 kts 27°
2026-05-05 17:07 45.55023 134.50519 34731 ft 493 kts 27°
2026-05-05 17:07 45.60592 134.56209 34740 ft 492 kts 27°
2026-05-05 17:08 45.66141 134.61888 34739 ft 495 kts 27°
2026-05-05 17:08 45.71767 134.67659 34750 ft 496 kts 27°
2026-05-05 17:09 45.77387 134.73453 34751 ft 497 kts 27°
2026-05-05 17:09 45.82985 134.79239 34745 ft 496 kts 27°
2026-05-05 17:10 45.88697 134.84682 34755 ft 486 kts 19°
2026-05-05 17:10 45.91742 134.86502 34748 ft 469 kts
2026-05-05 17:10 45.94894 134.87450 34766 ft 457 kts 358°
2026-05-05 17:11 46.01220 134.88422 34740 ft 455 kts 354°
2026-05-05 17:11 46.07500 134.89117 34752 ft 454 kts 354°
2026-05-05 17:12 46.13814 134.89856 34747 ft 453 kts 354°
2026-05-05 17:12 46.20109 134.90648 34749 ft 451 kts 354°
2026-05-05 17:13 46.26438 134.91460 34730 ft 455 kts 354°
2026-05-05 17:13 46.32782 134.92307 34721 ft 450 kts 354°
2026-05-05 17:14 46.39046 134.93143 34726 ft 453 kts 353°
2026-05-05 17:14 46.45334 134.93979 34725 ft 455 kts 354°
2026-05-05 17:15 46.51631 134.94836 34723 ft 452 kts 353°
2026-05-05 17:15 46.57982 134.95702 34724 ft 456 kts 353°
2026-05-05 17:16 46.64285 134.96556 34727 ft 452 kts 353°
2026-05-05 17:16 46.70556 134.97407 34724 ft 454 kts 353°
2026-05-05 17:17 46.76908 134.98273 34717 ft 452 kts 353°
2026-05-05 17:17 46.83161 134.99625 34729 ft 465 kts 360°
2026-05-05 17:18 46.89511 135.02083 34712 ft 475 kts
2026-05-05 17:18 46.95831 135.04950 34718 ft 472 kts
2026-05-05 17:19 47.02137 135.07832 34720 ft 479 kts
2026-05-05 17:19 47.08449 135.10698 34701 ft 474 kts
2026-05-05 17:20 47.14704 135.13524 34713 ft 474 kts
2026-05-05 17:20 47.21035 135.16353 34705 ft 475 kts
2026-05-05 17:21 47.27337 135.19188 34699 ft 473 kts
2026-05-05 17:22 47.36856 135.23457 34691 ft 478 kts
2026-05-05 17:22 47.43162 135.26325 34690 ft 470 kts
2026-05-05 17:23 47.49419 135.29153 34693 ft 476 kts
2026-05-05 17:23 47.55732 135.32024 34648 ft 474 kts
2026-05-05 17:23 47.58915 135.33478 34327 ft 469 kts
2026-05-05 17:24 47.61978 135.34883 33764 ft 462 kts
2026-05-05 17:24 47.65020 135.36281 32996 ft 457 kts
2026-05-05 17:24 47.68003 135.37648 32183 ft 452 kts
2026-05-05 17:24 47.71008 135.39023 31327 ft 449 kts
2026-05-05 17:25 47.73980 135.40379 30412 ft 448 kts
2026-05-05 17:25 47.75942 135.41273 29781 ft 447 kts
2026-05-05 17:25 47.79895 135.43079 28492 ft 445 kts
2026-05-05 17:25 47.82840 135.44424 27507 ft 444 kts
2026-05-05 17:26 47.85786 135.45766 26594 ft 449 kts
2026-05-05 17:26 47.88798 135.47124 25976 ft 462 kts
2026-05-05 17:26 47.91911 135.48524 25272 ft 471 kts
2026-05-05 17:26 47.94996 135.49936 24555 ft 470 kts
2026-05-05 17:27 47.98103 135.51381 23800 ft 468 kts
2026-05-05 17:27 48.01225 135.52841 23059 ft 466 kts
2026-05-05 17:27 48.04284 135.54272 22293 ft 465 kts
2026-05-05 17:27 48.07329 135.55695 21537 ft 463 kts
2026-05-05 17:28 48.10422 135.57140 20745 ft 461 kts
2026-05-05 17:28 48.13452 135.58554 19978 ft 460 kts
2026-05-05 17:28 48.16483 135.59969 19187 ft 458 kts
2026-05-05 17:28 48.19517 135.61385 18390 ft 456 kts
2026-05-05 17:29 48.22348 135.62706 17688 ft 453 kts
2026-05-05 17:29 48.25322 135.64101 16891 ft 442 kts
2026-05-05 17:29 48.28202 135.65462 16115 ft 428 kts
2026-05-05 17:29 48.30965 135.66772 15385 ft 414 kts 10°
2026-05-05 17:30 48.33687 135.68060 14661 ft 400 kts 11°
2026-05-05 17:30 48.36288 135.69284 13959 ft 387 kts 11°
2026-05-05 17:30 48.38809 135.70465 13279 ft 375 kts 11°
2026-05-05 17:30 48.41232 135.71597 12637 ft 363 kts 11°
2026-05-05 17:31 48.43612 135.72710 11989 ft 352 kts 11°
2026-05-05 17:31 48.45896 135.73779 11371 ft 342 kts 11°
2026-05-05 17:31 48.48114 135.74818 10868 ft 331 kts 11°
2026-05-05 17:31 48.50291 135.75841 10576 ft 327 kts 11°
2026-05-05 17:32 48.52491 135.76868 10396 ft 328 kts 11°
2026-05-05 17:32 48.54602 135.77866 10243 ft 311 kts 11°
2026-05-05 17:32 48.56593 135.78822 10095 ft 292 kts 11°
2026-05-05 17:32 48.58468 135.79723 9960 ft 273 kts 10°
2026-05-05 17:33 48.60234 135.80560 9821 ft 257 kts 10°
2026-05-05 17:33 48.61922 135.81351 9557 ft 258 kts
2026-05-05 17:33 48.63650 135.82147 9331 ft 264 kts 10°
2026-05-05 17:33 48.65377 135.82964 9229 ft 251 kts
2026-05-05 17:34 48.66997 135.83679 9113 ft 232 kts
2026-05-05 17:34 48.68528 135.83937 8876 ft 218 kts 353°
2026-05-05 17:34 48.70017 135.83929 8621 ft 211 kts 351°
2026-05-05 17:34 48.71505 135.83897 8396 ft 219 kts 352°
2026-05-05 17:35 48.73066 135.83902 8131 ft 232 kts 353°
2026-05-05 17:35 48.74701 135.83948 7850 ft 231 kts 354°
2026-05-05 17:35 48.76247 135.83855 7636 ft 215 kts 336°
2026-05-05 17:35 48.77398 135.82675 7662 ft 199 kts 303°
2026-05-05 17:36 48.77998 135.80743 7666 ft 209 kts 285°
2026-05-05 17:36 48.78145 135.78511 7643 ft 216 kts 268°
2026-05-05 17:36 48.77928 135.76262 7633 ft 216 kts 265°
2026-05-05 17:36 48.77748 135.74025 7640 ft 213 kts 268°
2026-05-05 17:37 48.77611 135.71797 7578 ft 216 kts 268°
2026-05-05 17:37 48.77462 135.69513 7382 ft 217 kts 267°
2026-05-05 17:37 48.77300 135.67270 7150 ft 214 kts 267°
2026-05-05 17:37 48.77133 135.65033 6896 ft 211 kts 267°
2026-05-05 17:38 48.76967 135.62828 6616 ft 212 kts 268°
2026-05-05 17:38 48.76802 135.60612 6337 ft 212 kts 268°
2026-05-05 17:38 48.76639 135.58411 6055 ft 211 kts 267°
2026-05-05 17:38 48.76475 135.56221 5769 ft 210 kts 267°
2026-05-05 17:39 48.76309 135.54028 5471 ft 212 kts 267°
2026-05-05 17:39 48.76096 135.51874 5418 ft 204 kts 259°
2026-05-05 17:39 48.75460 135.49908 5374 ft 213 kts 234°
2026-05-05 17:39 48.74361 135.48390 5401 ft 219 kts 226°
2026-05-05 17:40 48.73197 135.46825 5378 ft 224 kts 232°
2026-05-05 17:40 48.72123 135.45145 5373 ft 225 kts 231°
2026-05-05 17:40 48.70995 135.43504 5349 ft 225 kts 230°
2026-05-05 17:40 48.69820 135.41861 5021 ft 233 kts 229°
2026-05-05 17:41 48.68619 135.40208 4522 ft 235 kts 228°
2026-05-05 17:41 48.67410 135.38553 3958 ft 238 kts 228°
2026-05-05 17:41 48.66192 135.36879 3373 ft 241 kts 227°
2026-05-05 17:41 48.64968 135.35202 3049 ft 230 kts 227°
2026-05-05 17:42 48.63818 135.33627 2776 ft 218 kts 227°
2026-05-05 17:42 48.62717 135.32108 2495 ft 209 kts 227°
2026-05-05 17:42 48.61684 135.30699 2242 ft 191 kts 227°
2026-05-05 17:42 48.60749 135.29425 1983 ft 172 kts 227°
2026-05-05 17:43 48.59913 135.28282 1785 ft 153 kts 227°
2026-05-05 17:43 48.59149 135.27234 1583 ft 145 kts 227°
2026-05-05 17:43 48.58419 135.26236 1427 ft 142 kts 227°
2026-05-05 17:43 48.57677 135.25212 1220 ft 145 kts 226°
2026-05-05 17:44 48.56943 135.24208 1024 ft 144 kts 225°
2026-05-05 17:44 48.56193 135.23186 850 ft 144 kts 225°
2026-05-05 17:44 48.55448 135.22168 647 ft 145 kts 224°
2026-05-05 17:44 48.54701 135.21161 437 ft 142 kts 223°
2026-05-05 17:45 48.53995 135.20192 268 ft 131 kts 224°
2026-05-05 17:45 48.53407 135.19386 253 ft 85 kts 222°
2026-05-05 17:45 48.53116 135.18994 253 ft 34 kts 221°
2026-05-05 17:45 48.53019 135.18864 253 ft 0 kts 222°
2026-05-05 17:46 48.53008 135.18851 253 ft 4 kts 223°
2026-05-05 17:46 48.52979 135.18806 253 ft 7 kts 223°
2026-05-05 17:46 48.52921 135.18730 253 ft 14 kts 221°
2026-05-05 17:46 48.52833 135.18610 253 ft 20 kts 222°
2026-05-05 17:47 48.52717 135.18451 253 ft 25 kts 222°
2026-05-05 17:47 48.52572 135.18253 253 ft 30 kts 223°
2026-05-05 17:47 48.52403 135.18022 253 ft 33 kts 222°
2026-05-05 17:47 48.52305 135.17886 253 ft 7 kts 225°
2026-05-05 17:48 48.52286 135.17809 253 ft 8 kts 283°
2026-05-05 17:48 48.52327 135.17725 253 ft 11 kts 311°
2026-05-05 17:48 48.52387 135.17622 253 ft 13 kts 311°
2026-05-05 17:48 48.52442 135.17528 253 ft 13 kts 310°
2026-05-05 17:49 48.52503 135.17427 253 ft 11 kts 304°
2026-05-05 17:49 48.52511 135.17343 253 ft 8 kts 296°
2026-05-05 17:49 48.52540 135.17285 253 ft 2 kts 311°
2026-05-05 17:49 48.52552 135.17265 253 ft 0 kts 312°